Richmond Hanover County, VA

8:32 AM EST on November 19, 2017 (GMT -0500)
Hanover County Municipal

Weather History for KOFP - June, 2013

Change the Weather History Date:

Saturday, June 8, 2013

  Actual Average Record
Temperature  
Mean Temperature 72 °F -  
Max Temperature 82 °F 83 °F 98 °F (1999)
Min Temperature 64 °F 59 °F 40 °F (1977)
Cooling Degree Days 7    
Growing Degree Days 22 (Base 50)    
Moisture  
Dew Point 67 °F    
Average Humidity 93    
Maximum Humidity 100    
Minimum Humidity 54    
Precipitation  
Precipitation 0.41 in - - ()
Sea Level Pressure  
Sea Level Pressure 29.96 in    
Wind  
Wind Speed 1 mph (WSW)    
Max Wind Speed 7 mph    
Max Gust Speed -    
Visibility 5 miles    
Events Rain    
Averages and records for this station are not official NWS values.
T = Trace of Precipitation, MM = Missing Value Source: NWS Daily Summary

Daily Weather History Graph

Daily Weather History Graph

Search for Another Location

Airport or City:

Trip Planner

Search our weather history database for the weather conditions in past years. The results will help you decide how hot, cold, wet, or windy it might be!

Date:

Astronomy

Jun. 08, 2013 Rise Set
Actual Time 5:47 AM EDT 8:30 PM EDT
Civil Twilight 5:16 AM EDT 9:01 PM EDT
Nautical Twilight 4:38 AM EDT 9:40 PM EDT
Astronomical Twilight 3:54 AM EDT 10:23 PM EDT
Moon 5:52 AM EDT (6/8) 8:32 PM EDT (6/8)
Length of Visible Light 15h 44m
Length of Day
14h 42m
New Moon, 0% of the Moon is Illuminated
Jun 8
New Moon
Jun 16
First Quarter
Jun 23
Full
Jun 30
Last Quarter
Jul 8
New

Hourly Weather History & Observations

Time (EDT) Temp. Heat Index Dew Point Humidity Pressure Visibility Wind Dir Wind Speed Gust Speed Precip Events Conditions
12:54 AM 68.0 °F - 66.9 °F 96% 29.79 in 10.0 mi WSW 3.5 mph - N/A   Overcast
1:54 AM 66.9 °F - 66.0 °F 97% 29.80 in 10.0 mi Calm Calm - N/A   Clear
2:46 AM 64.4 °F - 64.4 °F 100% 29.81 in 1.5 mi Calm Calm - N/A   Partly Cloudy
2:54 AM 64.9 °F - 64.9 °F 100% 29.81 in 1.2 mi Calm Calm - N/A   Clear
3:00 AM 64.4 °F - 64.4 °F 100% 29.82 in 0.8 mi Calm Calm - N/A   Mist
3:48 AM 64.4 °F - 64.4 °F 100% 29.83 in 1.2 mi Calm Calm - N/A   Partly Cloudy
3:50 AM 64.4 °F - 64.4 °F 100% 29.83 in 2.5 mi Calm Calm - N/A   Partly Cloudy
3:54 AM 64.9 °F - 64.9 °F 100% 29.83 in 4.0 mi Calm Calm - N/A   Scattered Clouds
4:07 AM 64.4 °F - 64.4 °F 100% 29.84 in 4.0 mi Calm Calm - N/A   Mostly Cloudy
4:16 AM 64.4 °F - 64.4 °F 100% 29.85 in 3.0 mi Calm Calm - N/A   Overcast
4:30 AM 64.4 °F - 64.4 °F 100% 29.85 in 8.0 mi Calm Calm - N/A   Overcast
4:54 AM 66.9 °F - 66.9 °F 100% 29.86 in 8.0 mi South 3.5 mph - N/A   Overcast
5:54 AM 66.9 °F - 66.9 °F 100% 29.87 in 7.0 mi Calm Calm - N/A   Overcast
6:19 AM 66.2 °F - 66.2 °F 100% 29.87 in 5.0 mi Calm Calm - N/A   Overcast
6:54 AM 66.9 °F - 66.9 °F 100% 29.89 in 4.0 mi Calm Calm - 0.00 in Rain Light Rain
7:09 AM 68.0 °F - 66.2 °F 94% 29.89 in 4.0 mi Calm Calm - 0.01 in Rain Light Rain
7:54 AM 69.1 °F - 68.0 °F 96% 29.91 in 5.0 mi Calm Calm - 0.02 in   Overcast
8:12 AM 69.8 °F - 68.0 °F 94% 29.92 in 5.0 mi Calm Calm - N/A   Overcast
8:41 AM 69.8 °F - 69.8 °F 100% 29.93 in 5.0 mi Calm Calm - 0.00 in Rain Light Rain
8:54 AM 70.0 °F - 69.1 °F 97% 29.93 in 5.0 mi Calm Calm - 0.00 in   Overcast
9:02 AM 69.8 °F - 69.8 °F 100% 29.94 in 4.0 mi Calm Calm - 0.00 in Rain Light Rain
9:12 AM 69.8 °F - 69.8 °F 100% 29.95 in 2.5 mi Calm Calm - 0.02 in Rain Rain
9:15 AM 69.8 °F - 69.8 °F 100% 29.95 in 1.2 mi WSW 5.8 mph - 0.07 in Rain Rain
9:23 AM 69.8 °F - 69.8 °F 100% 29.95 in 0.8 mi SSW 4.6 mph - 0.15 in Rain Heavy Rain
9:27 AM 69.8 °F - 69.8 °F 100% 29.95 in 1.0 mi Calm Calm - 0.16 in Rain Heavy Rain
9:32 AM 69.8 °F - 69.8 °F 100% 29.95 in 1.5 mi WSW 3.5 mph - 0.17 in Rain Rain
9:38 AM 69.8 °F - 69.8 °F 100% 29.95 in 3.0 mi Calm Calm - 0.18 in Rain Light Rain
9:54 AM 70.0 °F - 69.1 °F 97% 29.94 in 6.0 mi Calm Calm - 0.18 in   Overcast
10:10 AM 69.8 °F - 69.8 °F 100% 29.97 in 3.0 mi WSW 5.8 mph - 0.02 in Rain Rain
10:12 AM 69.8 °F - 69.8 °F 100% 29.96 in 2.5 mi WSW 4.6 mph - 0.03 in Rain Rain
10:20 AM 69.8 °F - 69.8 °F 100% 29.97 in 2.5 mi WSW 4.6 mph - 0.04 in Rain Rain
10:29 AM 69.8 °F - 69.8 °F 100% 29.97 in 4.0 mi West 5.8 mph - 0.05 in Rain Light Rain
10:40 AM 69.8 °F - 68.0 °F 94% 29.97 in 3.0 mi WSW 5.8 mph - 0.07 in Rain Light Rain
10:52 AM 69.8 °F - 68.0 °F 94% 29.99 in 2.5 mi West 6.9 mph - 0.09 in Rain Rain
10:54 AM 69.1 °F - 68.0 °F 96% 29.99 in 2.0 mi West 5.8 mph - 0.10 in Rain Heavy Rain
11:03 AM 69.8 °F - 68.0 °F 94% 29.98 in 3.0 mi NW 3.5 mph - 0.02 in Rain Light Rain
11:36 AM 69.8 °F - 68.0 °F 94% 29.97 in 2.0 mi Calm Calm - 0.08 in Rain Rain
11:49 AM 69.8 °F - 68.0 °F 94% 29.98 in 4.0 mi Calm Calm - 0.10 in Rain Light Rain
11:54 AM 69.1 °F - 68.0 °F 96% 29.97 in 6.0 mi Calm Calm - 0.10 in Rain Light Rain
12:03 PM 69.8 °F - 66.2 °F 88% 29.97 in 10.0 mi SSE 3.5 mph - 0.00 in   Overcast
12:12 PM 69.8 °F - 64.4 °F 83% 29.97 in 10.0 mi Calm Calm - 0.00 in   Overcast
12:19 PM 69.8 °F - 64.4 °F 83% 29.97 in 10.0 mi Calm Calm - 0.00 in   Overcast
12:35 PM 71.6 °F - 66.2 °F 83% 29.98 in 10.0 mi Calm Calm - 0.00 in   Overcast
12:54 PM 71.1 °F - 66.0 °F 84% 29.98 in 10.0 mi Calm Calm - 0.00 in   Overcast
1:04 PM 71.6 °F - 66.2 °F 83% 29.98 in 10.0 mi Calm Calm - N/A   Mostly Cloudy
1:30 PM 73.4 °F - 66.2 °F 78% 29.98 in 10.0 mi South 3.5 mph - N/A   Mostly Cloudy
1:54 PM 75.9 °F - 68.0 °F 76% 29.98 in 10.0 mi Variable 5.8 mph - N/A   Overcast
2:18 PM 75.2 °F - 66.2 °F 73% 29.98 in 10.0 mi Calm Calm - N/A   Mostly Cloudy
2:54 PM 77.0 °F - 66.9 °F 71% 29.98 in 10.0 mi NW 3.5 mph - N/A   Mostly Cloudy
3:54 PM 77.0 °F - 64.0 °F 64% 29.97 in 10.0 mi Calm Calm - N/A   Scattered Clouds
4:54 PM 80.1 °F 81.5 °F 63.0 °F 56% 29.99 in 10.0 mi WSW 4.6 mph - N/A   Scattered Clouds
5:54 PM 80.1 °F 81.2 °F 62.1 °F 54% 29.99 in 10.0 mi SW 4.6 mph - N/A   Clear
6:54 PM 79.0 °F - 62.1 °F 56% 30.01 in 10.0 mi WSW 4.6 mph - N/A   Clear
7:54 PM 73.0 °F - 66.9 °F 81% 30.04 in 10.0 mi Calm Calm - 0.01 in   Clear
8:54 PM 69.1 °F - 66.0 °F 90% 30.05 in 8.0 mi Calm Calm - N/A   Clear
9:54 PM 66.0 °F - 64.9 °F 96% 30.07 in 6.0 mi Calm Calm - N/A   Clear
10:54 PM 64.9 °F - 64.9 °F 100% 30.09 in 4.0 mi Calm Calm - N/A   Clear
11:04 PM 64.4 °F - 64.4 °F 100% 30.10 in 1.8 mi Calm Calm - N/A   Clear
11:10 PM 64.4 °F - 64.4 °F 100% 30.10 in 0.8 mi Calm Calm - N/A   Clear
11:16 PM 64.4 °F - 64.4 °F 100% 30.10 in 1.0 mi Calm Calm - N/A   Mist
11:20 PM 64.4 °F - 64.4 °F 100% 30.10 in 1.5 mi Calm Calm - N/A   Partly Cloudy
11:23 PM 64.4 °F - 64.4 °F 100% 30.11 in 3.0 mi Calm Calm - N/A   Clear
11:39 PM 64.4 °F - 64.4 °F 100% 30.11 in 2.5 mi Calm Calm - N/A   Clear
11:54 PM 64.0 °F - 64.0 °F 100% 30.11 in 2.5 mi Calm Calm - N/A   Clear